This is the latest recevied weather packets stored in our database for station/object N7WLC. If no packets are shown the sender has not sent any weather packets the latest 10 day(s).
| Time | Temp. | Humidity | Pressure | Rain* | Wind** | Luminosity | Snow |
|---|---|---|---|---|---|---|---|
| 1788554591 | 28.33° C | 51% | 1012.9 hPa | 0 mm | 0.89 m/s, 228° | - | - |
| 1788552792 | 29.44° C | 45% | 1012.8 hPa | 0 mm | 0 m/s | - | - |
| 1788550991 | 28.89° C | 44% | 1013.1 hPa | 0 mm | 0.89 m/s, 177° | - | - |
| 1788549192 | 27.78° C | 45% | 1013.7 hPa | 0 mm | 0.45 m/s, 223° | - | - |
| 1788547392 | 26.67° C | 48% | 1013.8 hPa | 0 mm | 0.45 m/s, 241° | - | - |
| 1788545592 | 25.56° C | 49% | 1014.1 hPa | 0 mm | 1.79 m/s, 116° | - | - |
| 1788543792 | 24.44° C | 56% | 1014 hPa | 0 mm | 0 m/s | - | - |
| 1788541991 | 24.44° C | 57% | 1014 hPa | 0 mm | 0 m/s | - | - |
| 1788540192 | 23.33° C | 59% | 1013.9 hPa | 0 mm | 0.89 m/s, 179° | - | - |
| 1788538391 | 22.22° C | 65% | 1013.8 hPa | 0 mm | 0.45 m/s, 189° | - | - |
| 1788536592 | 21.11° C | 69% | 1013.8 hPa | 0 mm | 0.45 m/s, 295° | - | - |
| 1788534792 | 20° C | 75% | 1013.7 hPa | 0 mm | 0 m/s | - | - |
| 1788532991 | 17.78° C | 82% | 1013.6 hPa | 0 mm | 0 m/s | - | - |
| 1788531192 | 15.56° C | 90% | 1013.2 hPa | 0 mm | 0 m/s | - | - |
| 1788529391 | 15.56° C | 91% | 1012.8 hPa | 0 mm | 0 m/s | - | - |
| 1788527592 | 15.56° C | 91% | 1012.6 hPa | 0 mm | 0 m/s | - | - |
| 1788525791 | 15° C | 92% | 1012.7 hPa | 0 mm | 0 m/s | - | - |
| 1788523992 | 14.44° C | 92% | 1012.6 hPa | 0 mm | 0 m/s | - | - |
| 1788522192 | 14.44° C | 92% | 1012.5 hPa | 0 mm | 0 m/s | - | - |
| 1788520391 | 13.89° C | 91% | 1012.1 hPa | 0 mm | 0 m/s | - | - |
| 1788518592 | 14.44° C | 92% | 1012.5 hPa | 0 mm | 0 m/s | - | - |
| 1788516791 | 14.44° C | 91% | 1012.3 hPa | 0 mm | 0 m/s | - | - |
| 1788514992 | 14.44° C | 90% | 1012.3 hPa | 0 mm | 0 m/s | - | - |
| 1788513191 | 15° C | 89% | 1012.3 hPa | 0 mm | 0 m/s | - | - |
| 1788511392 | 15.56° C | 88% | 1012.5 hPa | 0 mm | 0 m/s | - | - |
* Rain latest hour (hover to see other rain measurements)
** Current wind speed in m/s (hover to see current wind gust speed)